| time (UTC) | temp C | wind direction | speed KPH | gust KPH | rain 1hr cm | rain 24hr cm | rain mn cm | humidity % | barometer mb |
| 20260504081220 | 10 | 0 | 1.6 | 0.0 | 0.00 | 0.00 | 0.00 | 91 | |
| 20260504080220 | 10 | 0 | 1.6 | 0.0 | 0.00 | 0.00 | 0.00 | 90 | |
| 20260504070120 | 11 | 0 | 1.6 | 0.0 | 0.00 | 0.00 | 0.00 | 87 | |
| 20260504045820 | 13 | 0 | 0.0 | 0.0 | 0.00 | 0.00 | 0.00 | 80 | |
| 20260504044750 | 13 | 0 | 1.6 | 0.0 | 0.00 | 0.00 | 0.00 | 79 | |
| 20260504043750 | 13 | 0 | 1.6 | 0.0 | 0.00 | 0.00 | 0.00 | 78 | |
| 20260504042720 | 13 | 0 | 3.2 | 0.0 | 0.00 | 0.00 | 0.00 | 77 | |
| 20260504041650 | 14 | 0 | 4.8 | 0.0 | 0.00 | 0.00 | 0.00 | 77 | |
| 20260504040620 | 14 | 0 | 1.6 | 0.0 | 0.00 | 0.00 | 0.00 | 77 | |
| 20260504035550 | 15 | 0 | 1.6 | 0.0 | 0.00 | 0.00 | 0.00 | 76 | |
| 20260504034550 | 15 | 0 | 8.0 | 0.0 | 0.00 | 0.00 | 0.00 | 76 | |
| 20260504033520 | 15 | 0 | 6.4 | 0.0 | 0.00 | 0.00 | 0.00 | 76 | |
| 20260504032450 | 15 | 0 | 3.2 | 0.0 | 0.00 | 0.00 | 0.00 | 76 | |
| 20260504031450 | 15 | 0 | 1.6 | 0.0 | 0.00 | 0.00 | 0.00 | 75 | |
| 20260504030420 | 15 | 0 | 4.8 | 0.0 | 0.00 | 0.00 | 0.00 | 75 | |
| 20260504025420 | 16 | 0 | 1.6 | 0.0 | 0.00 | 0.00 | 0.00 | 76 | |
| 20260504024350 | 16 | 0 | 3.2 | 0.0 | 0.00 | 0.00 | 0.00 | 75 | |
| 20260504023350 | 16 | 0 | 1.6 | 0.0 | 0.00 | 0.00 | 0.00 | 75 | |
| 20260504022320 | 16 | 0 | 3.2 | 0.0 | 0.00 | 0.00 | 0.00 | 75 | |
| 20260504021320 | 16 | 0 | 3.2 | 0.0 | 0.00 | 0.00 | 0.00 | 73 | |
| 20260504020250 | 16 | 0 | 1.6 | 0.0 | 0.00 | 0.00 | 0.00 | 73 | |
| 20260504015220 | 16 | 0 | 3.2 | 0.0 | 0.00 | 0.00 | 0.00 | 72 | |
| 20260504014150 | 16 | 0 | 1.6 | 0.0 | 0.00 | 0.00 | 0.00 | 73 | |
| 20260504013150 | 16 | 0 | 0.0 | 0.0 | 0.00 | 0.00 | 0.00 | 74 | |
| 20260504012150 | 16 | 0 | 3.2 | 0.0 | 0.00 | 0.00 | 0.00 | 73 | |
| 20260504011120 | 16 | 0 | 4.8 | 0.0 | 0.00 | 0.00 | 0.00 | 73 | |
| 20260504010120 | 16 | 0 | 4.8 | 0.0 | 0.00 | 0.00 | 0.00 | 73 | |
| 20260504005120 | 16 | 0 | 4.8 | 0.0 | 0.00 | 0.00 | 0.00 | 73 | |
| 20260504004120 | 16 | 0 | 6.4 | 0.0 | 0.00 | 0.00 | 0.00 | 75 | |
| 20260504003120 | 16 | 0 | 6.4 | 0.0 | 0.00 | 0.00 | 0.00 | 75 | |
| 20260504002050 | 16 | 0 | 11.3 | 0.0 | 0.00 | 0.00 | 0.00 | 73 | |
| 20260504001050 | 17 | 0 | 4.8 | 0.0 | 0.00 | 0.00 | 0.00 | 72 | |
| 20260504000020 | 17 | 0 | 0.0 | 0.0 | 0.00 | 0.00 | 0.00 | 72 | |
| 20260503234950 | 17 | 0 | 0.0 | 0.0 | 0.00 | 0.00 | 0.00 | 72 | |
| 20260503233920 | 16 | 0 | 0.0 | 0.0 | 0.00 | 0.00 | 0.00 | 72 | |
| 20260503232850 | 16 | 0 | 3.2 | 0.0 | 0.00 | 0.00 | 0.00 | 72 | |
| 20260503231820 | 16 | 0 | 3.2 | 0.0 | 0.00 | 0.00 | 0.00 | 72 | |
| 20260503230820 | 17 | 0 | 4.8 | 0.0 | 0.00 | 0.00 | 0.00 | 71 | |
| 20260503225750 | 17 | 0 | 1.6 | 0.0 | 0.00 | 0.00 | 0.00 | 70 | |
| 20260503224720 | 17 | 0 | 1.6 | 0.0 | 0.00 | 0.00 | 0.00 | 72 | |
| 20260503223650 | 16 | 0 | 0.0 | 0.0 | 0.00 | 0.00 | 0.00 | 72 | |
| 20260503222620 | 16 | 0 | 4.8 | 0.0 | 0.00 | 0.00 | 0.00 | 73 | |
| 20260503221620 | 16 | 0 | 4.8 | 0.0 | 0.00 | 0.00 | 0.00 | 73 | |
| 20260503220550 | 16 | 0 | 3.2 | 0.0 | 0.00 | 0.00 | 0.00 | 73 | |
| 20260503215520 | 15 | 0 | 3.2 | 0.0 | 0.00 | 0.00 | 0.00 | 74 | |
| 20260503214450 | 15 | 0 | 3.2 | 0.0 | 0.00 | 0.00 | 0.00 | 75 | |
| 20260503213420 | 15 | 0 | 9.7 | 0.0 | 0.00 | 0.00 | 0.00 | 75 | |
| 20260503212420 | 15 | 0 | 9.7 | 0.0 | 0.00 | 0.00 | 0.00 | 75 | |
| 20260503211350 | 16 | 0 | 3.2 | 0.0 | 0.00 | 0.00 | 0.00 | 74 | |
| 20260503210350 | 15 | 0 | 4.8 | 0.0 | 0.00 | 0.00 | 0.00 | 74 | |
| 20260503205350 | 16 | 0 | 1.6 | 0.0 | 0.00 | 0.00 | 0.00 | 74 | |
| 20260503204350 | 16 | 0 | 3.2 | 0.0 | 0.00 | 0.00 | 0.00 | 73 | |
| 20260503203320 | 17 | 0 | 3.2 | 0.0 | 0.00 | 0.00 | 0.00 | 72 | |
| 20260503202250 | 17 | 0 | 9.7 | 0.0 | 0.00 | 0.00 | 0.00 | 72 | |
| 20260503201220 | 17 | 0 | 4.8 | 0.0 | 0.00 | 0.00 | 0.00 | 73 | |
| 20260503200150 | 17 | 0 | 9.7 | 0.0 | 0.00 | 0.00 | 0.00 | 73 | |
| 20260503195150 | 17 | 0 | 11.3 | 0.0 | 0.00 | 0.00 | 0.00 | 73 | |
| 20260503194120 | 16 | 0 | 6.4 | 0.0 | 0.00 | 0.00 | 0.00 | 73 | |
| 20260503193120 | 15 | 0 | 8.0 | 0.0 | 0.00 | 0.00 | 0.00 | 78 | |
| 20260503192050 | 15 | 0 | 6.4 | 0.0 | 0.00 | 0.00 | 0.00 | 77 | |
| 20260503191050 | 16 | 0 | 8.0 | 0.0 | 0.00 | 0.00 | 0.00 | 76 | |
| 20260503190020 | 16 | 0 | 14.5 | 0.0 | 0.00 | 0.00 | 0.00 | 75 | |
| 20260503184950 | 16 | 0 | 4.8 | 0.0 | 0.00 | 0.00 | 0.00 | 78 | |
| 20260503183920 | 16 | 0 | 8.0 | 0.0 | 0.00 | 0.00 | 0.00 | 77 | |
| 20260503182850 | 15 | 0 | 3.2 | 0.0 | 0.00 | 0.00 | 0.00 | 81 | |
| 20260503181850 | 15 | 0 | 4.8 | 0.0 | 0.00 | 0.00 | 0.00 | 81 | |
| 20260503180820 | 15 | 0 | 3.2 | 0.0 | 0.00 | 0.00 | 0.00 | 82 | |
| 20260503175750 | 14 | 0 | 11.3 | 0.0 | 0.00 | 0.00 | 0.00 | 86 | |
| 20260503174720 | 13 | 0 | 4.8 | 0.0 | 0.00 | 0.00 | 0.00 | 91 | |
| 20260503173650 | 12 | 0 | 1.6 | 0.0 | 0.00 | 0.00 | 0.00 | 93 | |
| 20260503172620 | 12 | 0 | 4.8 | 0.0 | 0.00 | 0.00 | 0.00 | 91 | |
| 20260503171550 | 13 | 0 | 1.6 | 0.0 | 0.00 | 0.00 | 0.00 | 83 | |
| 20260503170520 | 13 | 0 | 6.4 | 0.0 | 0.00 | 0.00 | 0.00 | 82 | |
| 20260503130620 | 10 | 0 | 1.6 | 0.0 | 0.00 | 0.00 | 0.00 | 98 |